Location: Ab? ar R?sh Ba?r?
(24.1861°N, 32.8847°E)
Time: 12:03:52
(UTC+00:00)

Cosmos 2100 Rocket - Pass Details

Date: 24 October 2021
Orbit: 955 x 1001 km, 82.9° (Epoch: 03 December)

Event Time Altitude Azimuth Distance (km) Brightness Sun altitude
Rises 16:27:00 0° 167° (SSE) 3,661 6.9 -17.1°
Reaches altitude 10° 16:29:36 10° 161° (SSE) 2,722 6.2 -17.7°
Maximum altitude 16:35:29 44° 90° (E) 1,327 4.2 -19.1°
Drops below altitude 10° 16:41:26 10° 20° (NNE) 2,759 6.1 -20.4°
Sets 16:44:04 0° 15° (NNE) 3,715 6.9 -21.0°
